| time (UTC) | temp F | wind direction | speed MPH | gust MPH | rain 1hr in | rain 24hr in | rain mn in | humidity % | barometer mb |
| 20260510094544 | 65 | 149 | 2.0 | 6.0 | 0.00 | 0.00 | 0.00 | 83 | 1029.5 |
| 20260510094041 | 65 | 110 | 2.0 | 5.0 | 0.00 | 0.00 | 0.00 | 84 | 1029.5 |
| 20260510093541 | 65 | 128 | 2.0 | 5.0 | 0.00 | 0.00 | 0.00 | 84 | 1029.4 |
| 20260510093045 | 65 | 164 | 1.0 | 5.0 | 0.00 | 0.00 | 0.00 | 84 | 1029.4 |
| 20260510092540 | 65 | 145 | 1.0 | 10.0 | 0.00 | 0.00 | 0.00 | 84 | 1029.3 |
| 20260510092040 | 65 | 138 | 3.0 | 10.0 | 0.00 | 0.00 | 0.00 | 85 | 1029.4 |
| 20260510091543 | 65 | 83 | 2.0 | 5.0 | 0.00 | 0.00 | 0.00 | 85 | 1029.3 |
| 20260510091039 | 65 | 149 | 1.0 | 4.0 | 0.00 | 0.00 | 0.00 | 86 | 1029.2 |
| 20260510090539 | 65 | 163 | 1.0 | 6.0 | 0.00 | 0.00 | 0.00 | 86 | 1029.2 |
| 20260510090040 | 65 | 146 | 1.0 | 7.0 | 0.00 | 0.00 | 0.00 | 87 | 1029.1 |
| 20260510085543 | 64 | 142 | 1.0 | 5.0 | 0.00 | 0.00 | 0.00 | 87 | 1029.0 |
| 20260510085037 | 65 | 143 | 1.0 | 6.0 | 0.00 | 0.00 | 0.00 | 87 | 1029.0 |
| 20260510084540 | 65 | 121 | 1.0 | 6.0 | 0.00 | 0.00 | 0.00 | 86 | 1028.9 |
| 20260510084037 | 65 | 121 | 2.0 | 6.0 | 0.00 | 0.00 | 0.00 | 86 | 1028.8 |
| 20260510083536 | 65 | 113 | 0.0 | 6.0 | 0.00 | 0.00 | 0.00 | 1028.8 | |
| 20260510083035 | 0 | 0.0 | 0.0 | 0.00 | 0.00 | 0.00 | 1028.8 | ||
| 20260510082532 | 0 | 0.0 | 0.0 | 0.00 | 0.00 | 0.00 | 1028.7 | ||
| 20260510082031 | 0 | 0.0 | 0.0 | 0.00 | 0.00 | 0.00 | 1028.7 | ||
| 20260510081530 | 0 | 0.0 | 0.0 | 0.00 | 0.00 | 0.00 | 1028.6 | ||
| 20260510081030 | 0 | 0.0 | 0.0 | 0.00 | 0.00 | 0.00 | 1028.5 | ||
| 20260510080527 | 0 | 0.0 | 0.0 | 0.00 | 0.00 | 0.00 | 1028.5 | ||
| 20260510080033 | 0 | 0.0 | 0.0 | 0.00 | 0.00 | 0.00 | 1028.4 | ||
| 20260510075524 | 0 | 0.0 | 0.0 | 0.00 | 0.00 | 0.00 | 1028.4 | ||
| 20260510075023 | 0 | 0.0 | 0.0 | 0.00 | 0.00 | 0.00 | 1028.4 | ||
| 20260510074522 | 0 | 0.0 | 0.0 | 0.00 | 0.00 | 0.00 | 1028.3 | ||
| 20260510074020 | 0 | 0.0 | 0.0 | 0.00 | 0.00 | 0.00 | 1028.3 | ||
| 20260510073518 | 0 | 0.0 | 0.0 | 0.00 | 0.00 | 0.00 | 1028.3 | ||
| 20260510073022 | 0 | 0.0 | 0.0 | 0.00 | 0.00 | 0.00 | 1028.3 | ||
| 20260510072516 | 0 | 0.0 | 0.0 | 0.00 | 0.00 | 0.00 | 1028.2 | ||
| 20260510072017 | 0 | 0.0 | 0.0 | 0.00 | 0.00 | 0.00 | 1028.2 | ||
| 20260510071513 | 0 | 0.0 | 0.0 | 0.00 | 0.00 | 0.00 | 1028.2 | ||
| 20260510071011 | 0 | 0.0 | 0.0 | 0.00 | 0.00 | 0.00 | 1028.2 | ||
| 20260510070610 | 0 | 0.0 | 0.0 | 0.00 | 0.00 | 0.00 | 1028.0 | ||
| 20260510070009 | 0 | 0.0 | 0.0 | 0.00 | 0.00 | 0.00 | 1027.9 | ||
| 20260510065507 | 0 | 0.0 | 0.0 | 0.00 | 0.00 | 0.00 | 1027.9 | ||
| 20260510065009 | 0 | 0.0 | 0.0 | 0.00 | 0.00 | 0.00 | 1027.9 | ||
| 20260510064515 | 0 | 0.0 | 0.0 | 0.00 | 0.00 | 0.00 | 1027.8 | ||
| 20260510064002 | 0 | 0.0 | 0.0 | 0.00 | 0.00 | 0.00 | 1027.8 | ||
| 20260510063502 | 67 | 108 | 3.0 | 8.0 | 0.00 | 0.00 | 0.00 | 78 | 1027.7 |
| 20260510063002 | 67 | 108 | 3.0 | 8.0 | 0.00 | 0.00 | 0.00 | 78 | 1027.7 |
| 20260510062501 | 67 | 64 | 2.0 | 8.0 | 0.00 | 0.00 | 0.00 | 78 | 1027.6 |
| 20260510062001 | 67 | 142 | 3.0 | 10.0 | 0.00 | 0.00 | 0.00 | 77 | 1027.6 |
| 20260510061502 | 68 | 160 | 4.0 | 10.0 | 0.00 | 0.00 | 0.00 | 76 | 1027.6 |
| 20260510061002 | 68 | 144 | 3.0 | 9.0 | 0.00 | 0.00 | 0.00 | 75 | 1027.5 |
| 20260510060503 | 69 | 109 | 2.0 | 8.0 | 0.00 | 0.00 | 0.00 | 75 | 1027.4 |
| 20260510060003 | 69 | 128 | 2.0 | 7.0 | 0.00 | 0.00 | 0.00 | 75 | 1027.4 |
| 20260510055500 | 68 | 131 | 1.0 | 8.0 | 0.00 | 0.00 | 0.00 | 76 | 1027.3 |
| 20260510055100 | 68 | 145 | 2.0 | 6.0 | 0.00 | 0.00 | 0.00 | 76 | 1027.3 |
| 20260510054605 | 68 | 88 | 2.0 | 6.0 | 0.00 | 0.00 | 0.00 | 75 | 1027.2 |
| 20260510054100 | 68 | 104 | 2.0 | 11.0 | 0.00 | 0.00 | 0.00 | 75 | 1027.2 |
| 20260510053559 | 68 | 101 | 3.0 | 11.0 | 0.00 | 0.00 | 0.00 | 73 | 1027.1 |
| 20260510053059 | 69 | 100 | 3.0 | 10.0 | 0.00 | 0.00 | 0.00 | 73 | 1027.1 |
| 20260510052559 | 69 | 136 | 3.0 | 10.0 | 0.00 | 0.00 | 0.00 | 72 | 1027.1 |
| 20260510052102 | 69 | 89 | 2.0 | 10.0 | 0.00 | 0.00 | 0.00 | 71 | 1027.0 |
| 20260510051604 | 69 | 96 | 2.0 | 8.0 | 0.00 | 0.00 | 0.00 | 70 | 1027.0 |
| 20260510051101 | 69 | 109 | 2.0 | 8.0 | 0.00 | 0.00 | 0.00 | 69 | 1026.9 |
| 20260510050557 | 69 | 148 | 3.0 | 8.0 | 0.00 | 0.00 | 0.00 | 69 | 1026.8 |
| 20260510045601 | 69 | 91 | 3.0 | 11.0 | 0.00 | 0.00 | 0.00 | 68 | 1026.8 |
| 20260510045057 | 69 | 90 | 3.0 | 10.0 | 0.00 | 0.00 | 0.00 | 68 | 1026.8 |
| 20260510044557 | 69 | 143 | 3.0 | 10.0 | 0.00 | 0.00 | 0.00 | 68 | 1026.7 |
| 20260510044056 | 69 | 92 | 3.0 | 10.0 | 0.00 | 0.00 | 0.00 | 69 | 1026.7 |
| 20260510043556 | 69 | 108 | 3.0 | 9.0 | 0.00 | 0.00 | 0.00 | 68 | 1026.8 |
| 20260510043056 | 69 | 100 | 3.0 | 9.0 | 0.00 | 0.00 | 0.00 | 67 | 1026.7 |
| 20260510042559 | 70 | 109 | 2.0 | 6.0 | 0.00 | 0.00 | 0.00 | 67 | 1026.7 |
| 20260510042055 | 70 | 138 | 2.0 | 9.0 | 0.00 | 0.00 | 0.00 | 68 | 1026.6 |
| 20260510041554 | 70 | 95 | 3.0 | 9.0 | 0.00 | 0.00 | 0.00 | 67 | 1026.6 |
| 20260510041054 | 69 | 50 | 2.0 | 8.0 | 0.00 | 0.00 | 0.00 | 69 | 1026.7 |
| 20260510040554 | 68 | 129 | 2.0 | 6.0 | 0.00 | 0.00 | 0.00 | 70 | 1026.6 |
| 20260510040054 | 68 | 98 | 2.0 | 9.0 | 0.00 | 0.00 | 0.00 | 70 | 1026.6 |
| 20260510035553 | 68 | 69 | 3.0 | 9.0 | 0.00 | 0.00 | 0.00 | 69 | 1026.6 |
| 20260510035053 | 68 | 100 | 3.0 | 9.0 | 0.00 | 0.00 | 0.00 | 69 | 1026.6 |
| 20260510034614 | 68 | 95 | 3.0 | 9.0 | 0.00 | 0.00 | 0.00 | 69 | 1026.6 |
| 20260510034053 | 68 | 121 | 3.0 | 8.0 | 0.00 | 0.00 | 0.00 | 68 | 1026.6 |
| 20260510033553 | 68 | 88 | 2.0 | 8.0 | 0.00 | 0.00 | 0.00 | 67 | 1026.7 |
| 20260510033058 | 69 | 80 | 2.0 | 6.0 | 0.00 | 0.00 | 0.00 | 67 | 1026.7 |
| 20260510032552 | 69 | 95 | 2.0 | 5.0 | 0.00 | 0.00 | 0.00 | 67 | 1026.8 |
| 20260510032053 | 69 | 205 | 2.0 | 8.0 | 0.00 | 0.00 | 0.00 | 68 | 1026.8 |
| 20260510031553 | 69 | 75 | 2.0 | 8.0 | 0.00 | 0.00 | 0.00 | 67 | 1026.8 |
| 20260510031053 | 68 | 76 | 2.0 | 6.0 | 0.00 | 0.00 | 0.00 | 67 | 1026.9 |
| 20260510030551 | 0 | 0.0 | 0.0 | 0.00 | 0.00 | 0.00 | 1026.9 | ||
| 20260510030053 | 0 | 0.0 | 0.0 | 0.00 | 0.00 | 0.00 | 1026.9 | ||
| 20260510025549 | 0 | 0.0 | 0.0 | 0.00 | 0.00 | 0.00 | 1027.0 | ||
| 20260510025048 | 69 | 100 | 2.0 | 8.0 | 0.00 | 0.00 | 0.00 | 65 | 1027.0 |
| 20260510024548 | 69 | 100 | 2.0 | 8.0 | 0.00 | 0.00 | 0.00 | 65 | 1027.0 |
| 20260510024046 | 69 | 86 | 3.0 | 8.0 | 0.00 | 0.00 | 0.00 | 65 | 1027.0 |
| 20260510023547 | 70 | 92 | 2.0 | 7.0 | 0.00 | 0.00 | 0.00 | 66 | 1027.0 |
| 20260510023047 | 70 | 96 | 2.0 | 7.0 | 0.00 | 0.00 | 0.00 | 66 | 1027.1 |
| 20260510022547 | 70 | 127 | 2.0 | 7.0 | 0.00 | 0.00 | 0.00 | 65 | 1027.1 |
| 20260510022046 | 69 | 149 | 1.0 | 6.0 | 0.00 | 0.00 | 0.00 | 66 | 1027.2 |
| 20260510021557 | 70 | 112 | 3.0 | 6.0 | 0.00 | 0.00 | 0.00 | 65 | 1027.2 |
| 20260510021046 | 70 | 90 | 2.0 | 7.0 | 0.00 | 0.00 | 0.00 | 65 | 1027.2 |
| 20260510020544 | 70 | 106 | 2.0 | 5.0 | 0.00 | 0.00 | 0.00 | 65 | 1027.3 |
| 20260510020044 | 70 | 136 | 2.0 | 6.0 | 0.00 | 0.00 | 0.00 | 65 | 1027.4 |
| 20260510015542 | 69 | 96 | 2.0 | 7.0 | 0.00 | 0.00 | 0.00 | 65 | 1027.5 |
| 20260510015042 | 70 | 188 | 2.0 | 6.0 | 0.00 | 0.00 | 0.00 | 64 | 1027.5 |
| 20260510014546 | 70 | 136 | 1.0 | 6.0 | 0.00 | 0.00 | 0.00 | 65 | 1027.6 |
| 20260510014042 | 69 | 132 | 2.0 | 6.0 | 0.00 | 0.00 | 0.00 | 64 | 1027.6 |
| 20260510013541 | 70 | 93 | 1.0 | 6.0 | 0.00 | 0.00 | 0.00 | 63 | 1027.7 |
| 20260510013039 | 69 | 146 | 1.0 | 8.0 | 0.00 | 0.00 | 0.00 | 62 | 1027.7 |
| 20260510012539 | 70 | 190 | 3.0 | 8.0 | 0.00 | 0.00 | 0.00 | 61 | 1027.7 |
| 20260510012039 | 70 | 117 | 2.0 | 4.0 | 0.00 | 0.00 | 0.00 | 62 | 1027.9 |
| 20260510011538 | 69 | 123 | 1.0 | 4.0 | 0.00 | 0.00 | 0.00 | 64 | 1027.9 |
| 20260510011036 | 69 | 189 | 1.0 | 3.0 | 0.00 | 0.00 | 0.00 | 64 | 1027.9 |
| 20260510010535 | 68 | 207 | 1.0 | 6.0 | 0.00 | 0.00 | 0.00 | 64 | 1028.0 |
| 20260510010039 | 68 | 107 | 2.0 | 6.0 | 0.00 | 0.00 | 0.00 | 63 | 1028.1 |
| 20260510005535 | 68 | 88 | 1.0 | 4.0 | 0.00 | 0.00 | 0.00 | 62 | 1028.1 |
| 20260510005033 | 68 | 93 | 1.0 | 4.0 | 0.00 | 0.00 | 0.00 | 64 | 1028.2 |
| 20260510004533 | 68 | 45 | 1.0 | 4.0 | 0.00 | 0.00 | 0.00 | 64 | 1028.3 |
| 20260510004031 | 68 | 119 | 1.0 | 4.0 | 0.00 | 0.00 | 0.00 | 65 | 1028.2 |
| 20260510003530 | 67 | 163 | 0.0 | 7.0 | 0.00 | 0.00 | 0.00 | 67 | 1028.3 |
| 20260510003030 | 67 | 182 | 1.0 | 7.0 | 0.00 | 0.00 | 0.00 | 67 | 1028.3 |
| 20260510002528 | 67 | 126 | 2.0 | 7.0 | 0.00 | 0.00 | 0.00 | 67 | 1028.3 |
| 20260510002027 | 66 | 177 | 3.0 | 5.0 | 0.00 | 0.00 | 0.00 | 68 | 1028.3 |
| 20260510001525 | 66 | 171 | 0.0 | 5.0 | 0.00 | 0.00 | 0.00 | 70 | 1028.3 |
| 20260510001024 | 66 | 140 | 1.0 | 5.0 | 0.00 | 0.00 | 0.00 | 71 | 1028.2 |
| 20260510000523 | 65 | 171 | 1.0 | 5.0 | 0.00 | 0.00 | 0.00 | 72 | 1028.2 |
| 20260510000022 | 65 | 204 | 1.0 | 4.0 | 0.00 | 0.00 | 0.00 | 73 | 1028.2 |
| 20260509235520 | 64 | 227 | 0.0 | 4.0 | 0.00 | 0.00 | 0.00 | 74 | 1028.1 |
| 20260509235019 | 64 | 247 | 1.0 | 4.0 | 0.00 | 0.00 | 0.00 | 75 | 1028.1 |
| 20260509234518 | 64 | 234 | 1.0 | 4.0 | 0.00 | 0.00 | 0.00 | 75 | 1028.1 |
| 20260509234017 | 63 | 258 | 2.0 | 4.0 | 0.00 | 0.00 | 0.00 | 75 | 1028.0 |
| 20260509233515 | 63 | 171 | 1.0 | 4.0 | 0.00 | 0.00 | 0.00 | 75 | 1028.0 |
| 20260509233019 | 63 | 231 | 2.0 | 4.0 | 0.00 | 0.00 | 0.00 | 76 | 1027.9 |
| 20260509232514 | 63 | 209 | 2.0 | 4.0 | 0.00 | 0.00 | 0.00 | 77 | 1027.9 |
| 20260509232011 | 63 | 212 | 1.0 | 4.0 | 0.00 | 0.00 | 0.00 | 78 | 1027.9 |
| 20260509231512 | 63 | 205 | 2.0 | 4.0 | 0.00 | 0.00 | 0.00 | 77 | 1027.9 |
| 20260509231010 | 63 | 211 | 2.0 | 4.0 | 0.00 | 0.00 | 0.00 | 78 | 1027.9 |
| 20260509230510 | 62 | 215 | 0.0 | 3.0 | 0.00 | 0.00 | 0.00 | 78 | 1027.9 |
| 20260509230009 | 62 | 186 | 1.0 | 3.0 | 0.00 | 0.00 | 0.00 | 78 | 1027.9 |
| 20260509225507 | 62 | 220 | 1.0 | 3.0 | 0.00 | 0.00 | 0.00 | 78 | 1027.8 |
| 20260509225006 | 61 | 179 | 0.0 | 3.0 | 0.00 | 0.00 | 0.00 | 79 | 1027.7 |
| 20260509224504 | 61 | 266 | 0.0 | 1.0 | 0.00 | 0.00 | 0.00 | 80 | 1027.8 |
| 20260509224004 | 61 | 266 | 0.0 | 1.0 | 0.00 | 0.00 | 0.00 | 81 | 1027.7 |
| 20260509223503 | 60 | 267 | 0.0 | 1.0 | 0.00 | 0.00 | 0.00 | 80 | 1027.7 |
| 20260509223002 | 60 | 267 | 0.0 | 2.0 | 0.00 | 0.00 | 0.00 | 81 | 1027.8 |
| 20260509222500 | 60 | 272 | 0.0 | 3.0 | 0.00 | 0.00 | 0.00 | 82 | 1027.7 |
| 20260509222059 | 59 | 272 | 1.0 | 3.0 | 0.00 | 0.00 | 0.00 | 82 | 1027.7 |
| 20260509221621 | 59 | 283 | 0.0 | 3.0 | 0.00 | 0.00 | 0.00 | 83 | 1027.7 |
| 20260509221057 | 58 | 292 | 1.0 | 3.0 | 0.00 | 0.00 | 0.00 | 84 | 1027.6 |
| 20260509220557 | 58 | 292 | 1.0 | 3.0 | 0.00 | 0.00 | 0.00 | 84 | 1027.7 |
| 20260509220055 | 58 | 292 | 1.0 | 3.0 | 0.00 | 0.00 | 0.00 | 84 | 1027.6 |
| 20260509215555 | 58 | 294 | 1.0 | 3.0 | 0.00 | 0.00 | 0.00 | 84 | 1027.6 |
| 20260509215055 | 58 | 294 | 1.0 | 3.0 | 0.00 | 0.00 | 0.00 | 84 | 1027.5 |
| 20260509214601 | 58 | 289 | 1.0 | 3.0 | 0.00 | 0.00 | 0.00 | 84 | 1027.4 |
| 20260509214051 | 57 | 289 | 1.0 | 2.0 | 0.00 | 0.00 | 0.00 | 85 | 1027.4 |
| 20260509213551 | 57 | 289 | 1.0 | 2.0 | 0.00 | 0.00 | 0.00 | 85 | 1027.3 |
| 20260509213050 | 57 | 289 | 1.0 | 2.0 | 0.00 | 0.00 | 0.00 | 85 | 1027.3 |
| 20260509212549 | 57 | 289 | 1.0 | 2.0 | 0.00 | 0.00 | 0.00 | 85 | 1027.3 |
| 20260509212049 | 57 | 289 | 0.0 | 3.0 | 0.00 | 0.00 | 0.00 | 86 | 1027.1 |
| 20260509211550 | 57 | 289 | 1.0 | 3.0 | 0.00 | 0.00 | 0.00 | 86 | 1027.1 |
| 20260509211048 | 56 | 289 | 1.0 | 3.0 | 0.00 | 0.00 | 0.00 | 86 | 1027.0 |
| 20260509210548 | 56 | 289 | 1.0 | 3.0 | 0.00 | 0.00 | 0.00 | 86 | 1027.0 |
| 20260509210049 | 56 | 286 | 1.0 | 3.0 | 0.00 | 0.00 | 0.00 | 86 | 1027.0 |
| 20260509205548 | 56 | 286 | 1.0 | 3.0 | 0.00 | 0.00 | 0.00 | 86 | 1026.9 |
| 20260509205046 | 56 | 285 | 1.0 | 3.0 | 0.00 | 0.00 | 0.00 | 86 | 1026.9 |
| 20260509204545 | 56 | 285 | 1.0 | 3.0 | 0.00 | 0.00 | 0.00 | 87 | 1026.8 |
| 20260509204045 | 56 | 285 | 2.0 | 3.0 | 0.00 | 0.00 | 0.00 | 87 | 1026.8 |
| 20260509203543 | 56 | 285 | 1.0 | 3.0 | 0.00 | 0.00 | 0.00 | 88 | 1026.7 |
| 20260509203044 | 56 | 285 | 0.0 | 2.0 | 0.00 | 0.00 | 0.00 | 88 | 1026.6 |
| 20260509202542 | 55 | 285 | 0.0 | 2.0 | 0.00 | 0.00 | 0.00 | 88 | 1026.6 |
| 20260509202042 | 55 | 285 | 0.0 | 2.0 | 0.00 | 0.00 | 0.00 | 89 | 1026.5 |
| 20260509201543 | 55 | 285 | 1.0 | 2.0 | 0.00 | 0.00 | 0.00 | 89 | 1026.5 |
| 20260509201041 | 55 | 285 | 0.0 | 2.0 | 0.00 | 0.00 | 0.00 | 89 | 1026.4 |
| 20260509200541 | 55 | 285 | 0.0 | 2.0 | 0.00 | 0.00 | 0.00 | 89 | 1026.4 |
| 20260509200047 | 55 | 285 | 0.0 | 3.0 | 0.00 | 0.00 | 0.00 | 89 | 1026.3 |
| 20260509195540 | 55 | 285 | 1.0 | 3.0 | 0.00 | 0.00 | 0.00 | 90 | 1026.3 |
| 20260509195038 | 55 | 296 | 0.0 | 2.0 | 0.00 | 0.00 | 0.00 | 90 | 1026.2 |
| 20260509194548 | 55 | 296 | 0.0 | 2.0 | 0.00 | 0.00 | 0.00 | 90 | 1026.2 |
| 20260509194040 | 55 | 296 | 0.0 | 0.0 | 0.00 | 0.00 | 0.00 | 89 | 1026.1 |
| 20260509193537 | 55 | 296 | 0.0 | 2.0 | 0.00 | 0.00 | 0.00 | 89 | 1026.1 |
| 20260509193039 | 55 | 296 | 0.0 | 3.0 | 0.00 | 0.00 | 0.00 | 89 | 1026.0 |
| 20260509192539 | 56 | 296 | 1.0 | 3.0 | 0.00 | 0.00 | 0.00 | 88 | 1025.9 |
| 20260509192036 | 56 | 296 | 1.0 | 3.0 | 0.00 | 0.00 | 0.00 | 88 | 1025.9 |
| 20260509191537 | 56 | 296 | 0.0 | 3.0 | 0.00 | 0.00 | 0.00 | 88 | 1025.8 |
| 20260509191036 | 56 | 168 | 1.0 | 4.0 | 0.00 | 0.00 | 0.00 | 88 | 1025.7 |
| 20260509190536 | 56 | 132 | 2.0 | 4.0 | 0.00 | 0.00 | 0.00 | 89 | 1025.7 |
| 20260509190134 | 56 | 130 | 0.0 | 2.0 | 0.00 | 0.00 | 0.00 | 89 | 1025.7 |
| 20260509185535 | 56 | 139 | 0.0 | 3.0 | 0.00 | 0.00 | 0.00 | 89 | 1025.7 |
| 20260509185033 | 56 | 102 | 1.0 | 3.0 | 0.00 | 0.00 | 0.00 | 89 | 1025.6 |
| 20260509184536 | 56 | 136 | 0.0 | 3.0 | 0.00 | 0.00 | 0.00 | 89 | 1025.6 |
| 20260509184033 | 56 | 134 | 1.0 | 3.0 | 0.00 | 0.00 | 0.00 | 89 | 1025.6 |
| 20260509183531 | 56 | 156 | 0.0 | 2.0 | 0.00 | 0.00 | 0.00 | 89 | 1025.5 |
| 20260509183043 | 56 | 198 | 0.0 | 2.0 | 0.00 | 0.00 | 0.00 | 89 | 1025.5 |
| 20260509182531 | 56 | 198 | 0.0 | 2.0 | 0.00 | 0.00 | 0.00 | 89 | 1025.4 |
| 20260509182030 | 56 | 198 | 0.0 | 2.0 | 0.00 | 0.00 | 0.00 | 89 | 1025.4 |
| 20260509181530 | 56 | 198 | 0.0 | 2.0 | 0.00 | 0.00 | 0.00 | 89 | 1025.3 |
| 20260509181029 | 56 | 198 | 0.0 | 2.0 | 0.00 | 0.00 | 0.00 | 89 | 1025.3 |
| 20260509180529 | 56 | 202 | 0.0 | 3.0 | 0.00 | 0.00 | 0.00 | 89 | 1025.3 |
| 20260509180028 | 56 | 200 | 0.0 | 3.0 | 0.00 | 0.00 | 0.00 | 89 | 1025.3 |
| 20260509175528 | 56 | 151 | 0.0 | 3.0 | 0.00 | 0.00 | 0.00 | 89 | 1025.2 |
| 20260509175027 | 56 | 232 | 0.0 | 3.0 | 0.00 | 0.00 | 0.00 | 89 | 1025.2 |
| 20260509174541 | 56 | 307 | 0.0 | 3.0 | 0.00 | 0.00 | 0.00 | 89 | 1025.1 |
| 20260509174027 | 56 | 175 | 0.0 | 3.0 | 0.00 | 0.00 | 0.00 | 89 | 1025.1 |
| 20260509173526 | 56 | 144 | 1.0 | 3.0 | 0.00 | 0.00 | 0.00 | 89 | 1025.1 |
| 20260509173026 | 56 | 209 | 0.0 | 4.0 | 0.00 | 0.00 | 0.00 | 90 | 1025.1 |
| 20260509172526 | 56 | 186 | 0.0 | 4.0 | 0.00 | 0.00 | 0.00 | 90 | 1025.0 |
| 20260509172025 | 56 | 205 | 0.0 | 3.0 | 0.00 | 0.00 | 0.00 | 90 | 1025.0 |
| 20260509171537 | 56 | 205 | 0.0 | 3.0 | 0.00 | 0.00 | 0.00 | 90 | 1025.1 |
| 20260509171026 | 56 | 182 | 0.0 | 3.0 | 0.00 | 0.00 | 0.00 | 89 | 1025.1 |
| 20260509170526 | 56 | 225 | 0.0 | 1.0 | 0.00 | 0.00 | 0.00 | 89 | 1025.0 |
| 20260509170030 | 56 | 225 | 0.0 | 2.0 | 0.00 | 0.00 | 0.00 | 89 | 1025.1 |
| 20260509165526 | 56 | 225 | 0.0 | 2.0 | 0.00 | 0.00 | 0.00 | 89 | 1025.0 |
| 20260509165024 | 56 | 225 | 0.0 | 1.0 | 0.00 | 0.00 | 0.00 | 88 | 1025.0 |
| 20260509164524 | 56 | 225 | 0.0 | 1.0 | 0.00 | 0.00 | 0.00 | 88 | 1025.0 |
| 20260509164023 | 56 | 225 | 0.0 | 1.0 | 0.00 | 0.00 | 0.00 | 88 | 1025.0 |
| 20260509163528 | 56 | 225 | 0.0 | 1.0 | 0.00 | 0.00 | 0.00 | 88 | 1025.0 |
| 20260509163035 | 56 | 225 | 0.0 | 0.0 | 0.00 | 0.00 | 0.00 | 87 | 1025.0 |
| 20260509162527 | 56 | 225 | 0.0 | 0.0 | 0.00 | 0.00 | 0.00 | 88 | 1025.1 |
| 20260509162024 | 56 | 225 | 0.0 | 0.0 | 0.00 | 0.00 | 0.00 | 88 | 1025.1 |
| 20260509161529 | 56 | 225 | 0.0 | 0.0 | 0.00 | 0.00 | 0.00 | 88 | 1025.1 |
| 20260509161024 | 56 | 225 | 0.0 | 0.0 | 0.00 | 0.00 | 0.00 | 88 | 1025.1 |
| 20260509160525 | 56 | 225 | 0.0 | 0.0 | 0.00 | 0.00 | 0.00 | 88 | 1025.1 |
| 20260509160025 | 56 | 225 | 0.0 | 0.0 | 0.00 | 0.00 | 0.00 | 88 | 1025.1 |
| 20260509155521 | 56 | 225 | 0.0 | 0.0 | 0.00 | 0.00 | 0.00 | 87 | 1025.1 |
| 20260509155019 | 56 | 225 | 0.0 | 2.0 | 0.00 | 0.00 | 0.00 | 87 | 1025.1 |
| 20260509154520 | 56 | 225 | 0.0 | 2.0 | 0.00 | 0.00 | 0.00 | 87 | 1025.1 |
| 20260509154020 | 56 | 225 | 0.0 | 2.0 | 0.00 | 0.00 | 0.00 | 87 | 1025.1 |
| 20260509153519 | 57 | 225 | 0.0 | 1.0 | 0.00 | 0.00 | 0.00 | 87 | 1025.1 |
| 20260509153033 | 57 | 225 | 0.0 | 1.0 | 0.00 | 0.00 | 0.00 | 87 | 1025.1 |
| 20260509152519 | 57 | 225 | 0.0 | 1.0 | 0.00 | 0.00 | 0.00 | 87 | 1025.1 |
| 20260509152019 | 57 | 225 | 0.0 | 1.0 | 0.00 | 0.00 | 0.00 | 86 | 1025.1 |
| 20260509151519 | 57 | 225 | 0.0 | 1.0 | 0.00 | 0.00 | 0.00 | 86 | 1025.1 |
| 20260509151021 | 57 | 225 | 0.0 | 2.0 | 0.00 | 0.00 | 0.00 | 87 | 1025.1 |
| 20260509150523 | 57 | 225 | 0.0 | 2.0 | 0.00 | 0.00 | 0.00 | 87 | 1025.1 |
| 20260509150027 | 57 | 225 | 0.0 | 1.0 | 0.00 | 0.00 | 0.00 | 87 | 1025.1 |
| 20260509145520 | 56 | 225 | 0.0 | 1.0 | 0.00 | 0.00 | 0.00 | 86 | 1025.1 |
| 20260509145018 | 57 | 225 | 0.0 | 2.0 | 0.00 | 0.00 | 0.00 | 86 | 1025.1 |
| 20260509144517 | 57 | 225 | 0.0 | 2.0 | 0.00 | 0.00 | 0.00 | 86 | 1025.1 |
| 20260509144016 | 57 | 225 | 0.0 | 2.0 | 0.00 | 0.00 | 0.00 | 86 | 1025.1 |
| 20260509143516 | 57 | 225 | 0.0 | 2.0 | 0.00 | 0.00 | 0.00 | 85 | 1025.1 |
| 20260509143015 | 57 | 225 | 1.0 | 2.0 | 0.00 | 0.00 | 0.00 | 85 | 1025.1 |
| 20260509142514 | 57 | 225 | 0.0 | 2.0 | 0.00 | 0.00 | 0.00 | 85 | 1025.2 |
| 20260509142014 | 57 | 225 | 0.0 | 2.0 | 0.00 | 0.00 | 0.00 | 85 | 1025.1 |
| 20260509141514 | 57 | 225 | 0.0 | 2.0 | 0.00 | 0.00 | 0.00 | 85 | 1025.1 |
| 20260509141013 | 57 | 225 | 0.0 | 2.0 | 0.00 | 0.00 | 0.00 | 85 | 1025.1 |
| 20260509140512 | 57 | 225 | 1.0 | 2.0 | 0.00 | 0.00 | 0.00 | 85 | 1025.0 |
| 20260509140011 | 57 | 225 | 0.0 | 0.0 | 0.00 | 0.00 | 0.00 | 85 | 1025.0 |
| 20260509135511 | 57 | 225 | 0.0 | 0.0 | 0.00 | 0.00 | 0.00 | 85 | 1025.1 |
| 20260509135014 | 57 | 225 | 0.0 | 0.0 | 0.00 | 0.00 | 0.00 | 85 | 1025.1 |
| 20260509134510 | 57 | 225 | 0.0 | 1.0 | 0.00 | 0.00 | 0.00 | 85 | 1025.1 |
| 20260509134010 | 57 | 225 | 0.0 | 2.0 | 0.00 | 0.00 | 0.00 | 85 | 1025.2 |
| 20260509133510 | 57 | 225 | 0.0 | 2.0 | 0.00 | 0.00 | 0.00 | 86 | 1025.2 |
| 20260509133010 | 57 | 225 | 0.0 | 2.0 | 0.00 | 0.00 | 0.00 | 86 | 1025.2 |
| 20260509132510 | 57 | 225 | 0.0 | 1.0 | 0.00 | 0.00 | 0.00 | 86 | 1025.2 |
| 20260509132010 | 57 | 225 | 0.0 | 2.0 | 0.00 | 0.00 | 0.00 | 86 | 1025.2 |
| 20260509131509 | 57 | 225 | 0.0 | 2.0 | 0.00 | 0.00 | 0.00 | 87 | 1025.3 |
| 20260509131010 | 57 | 217 | 0.0 | 2.0 | 0.00 | 0.00 | 0.00 | 87 | 1025.3 |
| 20260509130509 | 57 | 217 | 0.0 | 1.0 | 0.00 | 0.00 | 0.00 | 88 | 1025.3 |
| 20260509130010 | 57 | 217 | 0.0 | 0.0 | 0.00 | 0.00 | 0.00 | 87 | 1025.2 |
| 20260509125516 | 56 | 217 | 0.0 | 0.0 | 0.00 | 0.00 | 0.00 | 87 | 1025.2 |
| 20260509125008 | 57 | 217 | 0.0 | 0.0 | 0.00 | 0.00 | 0.00 | 87 | 1025.3 |
| 20260509124508 | 57 | 217 | 0.0 | 0.0 | 0.00 | 0.00 | 0.00 | 87 | 1025.2 |
| 20260509124009 | 57 | 217 | 0.0 | 0.0 | 0.00 | 0.00 | 0.00 | 87 | 1025.3 |
| 20260509123509 | 57 | 217 | 0.0 | 0.0 | 0.00 | 0.00 | 0.00 | 87 | 1025.3 |
| 20260509123008 | 57 | 217 | 0.0 | 0.0 | 0.00 | 0.00 | 0.00 | 87 | 1025.3 |
| 20260509122507 | 57 | 217 | 0.0 | 0.0 | 0.00 | 0.00 | 0.00 | 86 | 1025.3 |
| 20260509122008 | 57 | 217 | 0.0 | 1.0 | 0.00 | 0.00 | 0.00 | 85 | 1025.3 |
| 20260509121509 | 58 | 217 | 0.0 | 1.0 | 0.00 | 0.00 | 0.00 | 85 | 1025.3 |
| 20260509121006 | 58 | 217 | 0.0 | 0.0 | 0.00 | 0.00 | 0.00 | 84 | 1025.4 |
| 20260509120506 | 58 | 217 | 0.0 | 1.0 | 0.00 | 0.00 | 0.00 | 84 | 1025.4 |
| 20260509120005 | 58 | 217 | 0.0 | 2.0 | 0.00 | 0.00 | 0.00 | 84 | 1025.4 |
| 20260509115505 | 58 | 217 | 0.0 | 1.0 | 0.00 | 0.00 | 0.00 | 84 | 1025.4 |
| 20260509115005 | 58 | 225 | 0.0 | 1.0 | 0.00 | 0.00 | 0.00 | 84 | 1025.4 |
| 20260509114509 | 58 | 225 | 0.0 | 1.0 | 0.00 | 0.00 | 0.00 | 84 | 1025.4 |
| 20260509114003 | 58 | 226 | 0.0 | 1.0 | 0.00 | 0.00 | 0.00 | 84 | 1025.4 |
| 20260509113504 | 58 | 226 | 0.0 | 1.0 | 0.00 | 0.00 | 0.00 | 84 | 1025.3 |
| 20260509113003 | 58 | 226 | 0.0 | 2.0 | 0.00 | 0.00 | 0.00 | 84 | 1025.4 |
| 20260509112503 | 58 | 226 | 0.0 | 2.0 | 0.00 | 0.00 | 0.00 | 84 | 1025.3 |
| 20260509112002 | 58 | 226 | 0.0 | 1.0 | 0.00 | 0.00 | 0.00 | 84 | 1025.3 |
| 20260509111502 | 58 | 226 | 0.0 | 2.0 | 0.00 | 0.00 | 0.00 | 84 | 1025.4 |
| 20260509111001 | 58 | 226 | 0.0 | 3.0 | 0.00 | 0.00 | 0.00 | 84 | 1025.4 |
| 20260509110601 | 58 | 226 | 0.0 | 3.0 | 0.00 | 0.00 | 0.00 | 84 | 1025.3 |
| 20260509110059 | 58 | 240 | 0.0 | 2.0 | 0.00 | 0.00 | 0.00 | 84 | 1025.2 |
| 20260509105559 | 58 | 244 | 0.0 | 0.0 | 0.00 | 0.00 | 0.00 | 84 | 1025.2 |
| 20260509105058 | 58 | 244 | 0.0 | 3.0 | 0.00 | 0.00 | 0.00 | 84 | 1025.2 |
| 20260509104558 | 59 | 244 | 0.0 | 3.0 | 0.00 | 0.00 | 0.00 | 84 | 1025.2 |
| 20260509104057 | 59 | 244 | 1.0 | 3.0 | 0.00 | 0.00 | 0.00 | 84 | 1025.2 |
| 20260509103558 | 59 | 208 | 1.0 | 2.0 | 0.00 | 0.00 | 0.00 | 84 | 1025.2 |
| 20260509103103 | 59 | 206 | 0.0 | 2.0 | 0.00 | 0.00 | 0.00 | 84 | 1025.2 |
| 20260509102556 | 59 | 206 | 0.0 | 2.0 | 0.00 | 0.00 | 0.00 | 84 | 1025.1 |
| 20260509102055 | 59 | 206 | 0.0 | 2.0 | 0.00 | 0.00 | 0.00 | 83 | 1025.1 |
| 20260509101554 | 59 | 206 | 1.0 | 2.0 | 0.00 | 0.00 | 0.00 | 83 | 1025.1 |
| 20260509101053 | 59 | 206 | 0.0 | 2.0 | 0.00 | 0.00 | 0.00 | 82 | 1025.0 |
| 20260509100552 | 59 | 206 | 0.0 | 2.0 | 0.00 | 0.00 | 0.00 | 82 | 1024.9 |
| 20260509100058 | 59 | 80 | 0.0 | 0.0 | 0.00 | 0.00 | 0.00 | 81 | 1024.9 |
| 20260509095551 | 59 | 80 | 0.0 | 0.0 | 0.00 | 0.00 | 0.00 | 80 | 1024.8 |
| 20260509095051 | 60 | 80 | 0.0 | 1.0 | 0.00 | 0.00 | 0.00 | 80 | 1024.8 |